Wetterdaten: Dienstag, 12.08.2014
Datum Zeit Temp. A. Mod.Schuppen Waschkche Feuchte A. Luftdruck Regen Wind Richtung Richtung Sonnenschein Helligkeit Solar
12.08.2014 00:04 16,2 C 14,6 C 20,1 C 72 % 1010,9 hPa 0,0 l/m 16,3 km/h (3 Bft) S-SW45 200 0 min 0 lux 0 W/m
12.08.2014 00:09 16,2 C 14,3 C 20,1 C 72 % 1010,9 hPa 0,0 l/m 20,5 km/h (4 Bft) S-SW22.5 205 0 min 0 lux 0 W/m
12.08.2014 00:15 16,1 C 14,1 C 20,1 C 72 % 1010,9 hPa 0,0 l/m 22,1 km/h (4 Bft) S-SW22.5 205 0 min 0 lux 0 W/m
12.08.2014 00:20 16,0 C 13,6 C 20,1 C 72 % 1010,9 hPa 0,0 l/m 19,4 km/h (3 Bft) S-SW45 205 0 min 0 lux 0 W/m
12.08.2014 00:24 16,0 C 13,4 C 20,0 C 73 % 1010,9 hPa 0,0 l/m 13,1 km/h (3 Bft) SW67.5 215 0 min 0 lux 0 W/m
12.08.2014 00:29 16,0 C 13,2 C 20,1 C 73 % 1010,9 hPa 0,0 l/m 13,1 km/h (3 Bft) SW67.5 215 0 min 0 lux 0 W/m
12.08.2014 00:34 15,7 C 13,0 C 20,0 C 74 % 1010,9 hPa 0,0 l/m 14,3 km/h (3 Bft) S-SW22.5 200 0 min 0 lux 0 W/m
12.08.2014 00:39 15,7 C 12,9 C 20,1 C 74 % 1010,9 hPa 0,0 l/m 15,7 km/h (3 Bft) S-SW22.5 210 0 min 0 lux 0 W/m
12.08.2014 00:44 15,6 C 12,8 C 20,1 C 74 % 1010,9 hPa 0,0 l/m 15,3 km/h (3 Bft) S-SW22.5 210 0 min 0 lux 0 W/m
12.08.2014 00:50 15,5 C 12,9 C 20,1 C 75 % 1010,9 hPa 0,0 l/m 15,2 km/h (3 Bft) SW22.5 215 0 min 0 lux 0 W/m
12.08.2014 00:55 15,5 C 12,9 C 20,0 C 75 % 1010,9 hPa 0,0 l/m 14,8 km/h (3 Bft) S-SW45 205 0 min 0 lux 0 W/m
12.08.2014 00:59 15,4 C 12,7 C 20,0 C 76 % 1010,9 hPa 0,0 l/m 17,5 km/h (3 Bft) S-SW22.5 205 0 min 0 lux 0 W/m
12.08.2014 01:04 15,4 C 12,8 C 20,0 C 75 % 1010,9 hPa 0,0 l/m 14,1 km/h (3 Bft) S-SW22.5 200 0 min 0 lux 0 W/m
12.08.2014 01:09 15,4 C 12,8 C 20,0 C 76 % 1010,9 hPa 0,0 l/m 14,7 km/h (3 Bft) S-SW22.5 195 0 min 0 lux 0 W/m
12.08.2014 01:14 15,3 C 13,0 C 20,0 C 76 % 1010,9 hPa 0,0 l/m 14,7 km/h (3 Bft) S-SW22.5 195 0 min 0 lux 0 W/m
12.08.2014 01:20 15,3 C 13,0 C 20,0 C 76 % 1010,9 hPa 0,0 l/m 11,6 km/h (2 Bft) S-SW22.5 195 0 min 0 lux 0 W/m
12.08.2014 01:25 15,3 C 12,9 C 20,0 C 76 % 1010,9 hPa 0,0 l/m 11,6 km/h (2 Bft) S-SW22.5 195 0 min 0 lux 0 W/m
12.08.2014 01:29 15,2 C 12,8 C 20,0 C 76 % 1010,9 hPa 0,0 l/m 14,6 km/h (3 Bft) S-SW22.5 200 0 min 0 lux 0 W/m
12.08.2014 01:34 15,2 C 12,6 C 20,0 C 76 % 1010,9 hPa 0,0 l/m 18,8 km/h (3 Bft) S-SW45 205 0 min 0 lux 0 W/m
12.08.2014 01:39 15,2 C 12,5 C 20,0 C 76 % 1010,9 hPa 0,0 l/m 20,0 km/h (4 Bft) S-SW45 210 0 min 0 lux 0 W/m
12.08.2014 01:44 15,2 C 12,6 C 20,0 C 76 % 1010,9 hPa 0,0 l/m 19,9 km/h (4 Bft) S-SW45 210 0 min 0 lux 0 W/m
12.08.2014 01:49 15,0 C 12,7 C 20,0 C 77 % 1010,9 hPa 0,0 l/m 22,3 km/h (4 Bft) SW45 225 0 min 0 lux 0 W/m
12.08.2014 01:55 15,0 C 12,6 C 20,0 C 78 % 1010,9 hPa 0,0 l/m 24,4 km/h (4 Bft) SW67.5 220 0 min 0 lux 0 W/m
12.08.2014 02:00 15,0 C 12,6 C 20,0 C 78 % 1010,9 hPa 0,0 l/m 20,1 km/h (4 Bft) SW45 220 0 min 0 lux 0 W/m
12.08.2014 02:04 15,0 C 12,5 C 19,9 C 78 % 1010,9 hPa 0,0 l/m 21,8 km/h (4 Bft) SW45 225 0 min 0 lux 0 W/m
12.08.2014 02:09 14,9 C 12,7 C 19,9 C 79 % 1010,9 hPa 0,0 l/m 20,0 km/h (4 Bft) SW22.5 230 0 min 0 lux 0 W/m
12.08.2014 02:14 15,0 C 12,9 C 19,8 C 79 % 1010,9 hPa 0,0 l/m 20,2 km/h (4 Bft) SW45 220 0 min 0 lux 0 W/m
12.08.2014 02:19 15,0 C 12,9 C 19,8 C 78 % 1010,9 hPa 0,0 l/m 24,1 km/h (4 Bft) SW22.5 220 0 min 0 lux 0 W/m
12.08.2014 02:25 15,0 C 12,8 C 19,8 C 78 % 1010,9 hPa 0,0 l/m 26,5 km/h (4 Bft) S-SW45 210 0 min 0 lux 0 W/m
12.08.2014 02:30 15,0 C 12,8 C 19,8 C 78 % 1010,9 hPa 0,0 l/m 19,5 km/h (3 Bft) S-SW45 210 0 min 0 lux 0 W/m
12.08.2014 02:34 14,9 C 12,6 C 19,8 C 79 % 1010,9 hPa 0,0 l/m 22,6 km/h (4 Bft) SW67.5 215 0 min 0 lux 0 W/m
12.08.2014 02:39 14,8 C 12,6 C 19,7 C 79 % 1010,9 hPa 0,0 l/m 16,0 km/h (3 Bft) SW45 215 0 min 0 lux 0 W/m
12.08.2014 02:44 14,8 C 12,6 C 19,8 C 79 % 1010,9 hPa 0,0 l/m 19,8 km/h (3 Bft) SW45 220 0 min 0 lux 0 W/m
12.08.2014 02:49 14,7 C 12,6 C 19,7 C 79 % 1010,9 hPa 0,0 l/m 27,4 km/h (5 Bft) SW22.5 225 0 min 0 lux 0 W/m
12.08.2014 02:54 14,8 C 12,5 C 19,7 C 79 % 1010,9 hPa 0,0 l/m 23,2 km/h (4 Bft) S-SW45 210 0 min 0 lux 0 W/m
12.08.2014 02:59 14,8 C 12,6 C 19,7 C 79 % 1010,9 hPa 0,0 l/m 24,9 km/h (4 Bft) SW45 220 0 min 0 lux 0 W/m
12.08.2014 03:04 14,8 C 12,6 C 19,6 C 79 % 1010,9 hPa 0,0 l/m 20,1 km/h (4 Bft) SW22.5 215 0 min 0 lux 0 W/m
12.08.2014 03:09 14,8 C 12,9 C 19,6 C 79 % 1010,9 hPa 0,0 l/m 23,8 km/h (4 Bft) SW45 215 0 min 0 lux 0 W/m
12.08.2014 03:14 14,9 C 12,9 C 19,6 C 79 % 1010,9 hPa 0,0 l/m 23,0 km/h (4 Bft) SW45 225 0 min 0 lux 0 W/m
12.08.2014 03:19 14,9 C 12,8 C 19,6 C 79 % 1010,9 hPa 0,0 l/m 25,6 km/h (4 Bft) SW22.5 215 0 min 0 lux 0 W/m
12.08.2014 03:24 14,8 C 12,8 C 19,6 C 79 % 1010,9 hPa 0,0 l/m 21,3 km/h (4 Bft) SW22.5 220 0 min 0 lux 0 W/m
12.08.2014 03:29 14,8 C 12,8 C 19,6 C 79 % 1010,9 hPa 0,0 l/m 21,8 km/h (4 Bft) SW45 215 0 min 0 lux 0 W/m
12.08.2014 03:35 14,8 C 12,8 C 19,5 C 79 % 1010,9 hPa 0,0 l/m 23,0 km/h (4 Bft) SW45 215 0 min 0 lux 0 W/m
12.08.2014 03:39 14,8 C 13,1 C 19,6 C 79 % 1010,9 hPa 0,0 l/m 31,2 km/h (5 Bft) SW22.5 225 0 min 0 lux 0 W/m
12.08.2014 03:44 14,9 C 13,3 C 19,5 C 79 % 1010,9 hPa 0,0 l/m 27,5 km/h (5 Bft) SW45 225 0 min 0 lux 0 W/m
12.08.2014 03:49 14,9 C 13,3 C 19,4 C 79 % 1010,9 hPa 0,0 l/m 30,5 km/h (5 Bft) SW22.5 230 0 min 0 lux 0 W/m
12.08.2014 03:54 14,8 C 13,0 C 19,4 C 79 % 1010,9 hPa 0,0 l/m 30,0 km/h (5 Bft) SW45 225 0 min 0 lux 0 W/m
12.08.2014 03:59 14,8 C 12,7 C 19,5 C 79 % 1010,9 hPa 0,0 l/m 27,0 km/h (5 Bft) SW45 230 0 min 0 lux 0 W/m
12.08.2014 04:05 14,6 C 12,7 C 19,4 C 79 % 1010,9 hPa 0,0 l/m 25,8 km/h (4 Bft) SW45 230 0 min 0 lux 0 W/m
12.08.2014 04:09 14,7 C 12,7 C 19,4 C 79 % 1010,9 hPa 0,0 l/m 27,6 km/h (5 Bft) SW45 220 0 min 0 lux 0 W/m
12.08.2014 04:14 14,6 C 12,7 C 19,4 C 79 % 1010,9 hPa 0,0 l/m 29,0 km/h (5 Bft) SW67.5 225 0 min 0 lux 0 W/m
12.08.2014 04:19 14,6 C 12,6 C 19,3 C 79 % 1010,9 hPa 0,0 l/m 22,5 km/h (4 Bft) SW45 215 0 min 0 lux 0 W/m
12.08.2014 04:24 14,5 C 12,5 C 19,3 C 79 % 1010,9 hPa 0,0 l/m 22,1 km/h (4 Bft) SW45 225 0 min 0 lux 0 W/m
12.08.2014 04:29 14,4 C 12,4 C 19,3 C 80 % 1010,9 hPa 0,0 l/m 24,2 km/h (4 Bft) SW22.5 220 0 min 0 lux 0 W/m
12.08.2014 04:34 14,4 C 12,3 C 19,3 C 80 % 1010,9 hPa 0,0 l/m 28,6 km/h (5 Bft) SW45 220 0 min 0 lux 0 W/m
12.08.2014 04:40 14,3 C 12,1 C 19,3 C 80 % 1010,9 hPa 0,0 l/m 22,5 km/h (4 Bft) SW22.5 220 0 min 0 lux 0 W/m
12.08.2014 04:45 14,3 C 12,1 C 19,2 C 81 % 1010,9 hPa 0,0 l/m 23,1 km/h (4 Bft) SW22.5 215 0 min 0 lux 0 W/m
12.08.2014 04:49 14,2 C 12,0 C 19,2 C 81 % 1010,9 hPa 0,0 l/m 20,7 km/h (4 Bft) SW22.5 220 0 min 0 lux 0 W/m
12.08.2014 04:54 14,2 C 12,0 C 19,2 C 81 % 1009,9 hPa 0,0 l/m 20,7 km/h (4 Bft) SW22.5 220 0 min 0 lux 0 W/m
12.08.2014 04:59 14,2 C 11,9 C 19,2 C 81 % 1009,9 hPa 0,0 l/m 20,7 km/h (4 Bft) SW22.5 225 0 min 0 lux 0 W/m
12.08.2014 05:04 14,2 C 11,7 C 19,2 C 81 % 1009,9 hPa 0,0 l/m 20,8 km/h (4 Bft) S-SW22.5 205 0 min 0 lux 0 W/m
12.08.2014 05:10 14,2 C 11,7 C 19,2 C 81 % 1009,9 hPa 0,0 l/m 20,2 km/h (4 Bft) SW22.5 220 0 min 0 lux 0 W/m
12.08.2014 05:15 14,2 C 11,8 C 19,2 C 81 % 1009,9 hPa 0,0 l/m 20,1 km/h (4 Bft) S-SW45 205 0 min 0 lux 0 W/m
12.08.2014 05:19 14,2 C 11,7 C 19,1 C 81 % 1009,9 hPa 0,0 l/m 24,5 km/h (4 Bft) S-SW45 200 0 min 0 lux 0 W/m
12.08.2014 05:24 14,2 C 11,8 C 19,1 C 81 % 1009,9 hPa 0,0 l/m 21,6 km/h (4 Bft) S-SW22.5 210 0 min 0 lux 0 W/m
12.08.2014 05:29 14,2 C 11,8 C 19,1 C 81 % 1009,9 hPa 0,0 l/m 19,0 km/h (3 Bft) SW45 215 0 min 0 lux 0 W/m
12.08.2014 05:34 14,1 C 11,8 C 19,1 C 81 % 1009,9 hPa 0,0 l/m 24,5 km/h (4 Bft) SW22.5 215 0 min 0 lux 0 W/m
12.08.2014 05:39 14,1 C 11,7 C 19,1 C 81 % 1009,9 hPa 0,0 l/m 21,6 km/h (4 Bft) SW22.5 215 0 min 0 lux 0 W/m
12.08.2014 05:45 14,0 C 11,7 C 19,1 C 82 % 1009,9 hPa 0,0 l/m 24,3 km/h (4 Bft) SW22.5 215 0 min 0 lux 0 W/m
12.08.2014 05:50 14,0 C 11,7 C 19,1 C 82 % 1009,9 hPa 0,0 l/m 22,9 km/h (4 Bft) S-SW45 210 0 min 0 lux 0 W/m
12.08.2014 05:54 14,0 C 11,7 C 19,1 C 82 % 1009,9 hPa 0,0 l/m 25,3 km/h (4 Bft) SW45 215 0 min 0 lux 0 W/m
12.08.2014 05:59 14,0 C 11,7 C 19,0 C 82 % 1009,9 hPa 0,0 l/m 22,5 km/h (4 Bft) S-SW45 210 0 min 83 lux 0 W/m
12.08.2014 06:04 14,0 C 11,6 C 19,0 C 82 % 1009,9 hPa 0,0 l/m 21,0 km/h (4 Bft) S-SW45 210 0 min 155 lux 0 W/m
12.08.2014 06:09 14,0 C 11,7 C 19,0 C 82 % 1009,9 hPa 0,0 l/m 23,6 km/h (4 Bft) S-SW45 210 0 min 267 lux 0 W/m
12.08.2014 06:15 13,9 C 11,6 C 19,0 C 82 % 1009,9 hPa 0,0 l/m 17,8 km/h (3 Bft) SW45 215 0 min 267 lux 0 W/m
12.08.2014 06:20 13,9 C 11,6 C 19,0 C 82 % 1009,9 hPa 0,0 l/m 18,5 km/h (3 Bft) S-SW45 210 0 min 426 lux 0 W/m
12.08.2014 06:24 13,9 C 11,7 C 19,0 C 82 % 1009,9 hPa 0,0 l/m 22,0 km/h (4 Bft) SW22.5 220 0 min 674 lux 5 W/m
12.08.2014 06:29 13,8 C 11,7 C 19,0 C 82 % 1009,9 hPa 0,0 l/m 19,5 km/h (3 Bft) SW45 215 0 min 1,18 klux 8 W/m
12.08.2014 06:34 13,8 C 11,6 C 19,0 C 82 % 1009,9 hPa 0,0 l/m 24,8 km/h (4 Bft) S-SW45 210 0 min 1,57 klux 11 W/m
12.08.2014 06:39 13,8 C 11,6 C 19,0 C 82 % 1009,9 hPa 0,0 l/m 23,0 km/h (4 Bft) S-SW22.5 205 0 min 2,00 klux 14 W/m
12.08.2014 06:44 13,8 C 11,7 C 19,0 C 82 % 1009,9 hPa 0,0 l/m 21,7 km/h (4 Bft) SW45 215 0 min 2,23 klux 15 W/m
12.08.2014 06:49 13,8 C 11,9 C 19,0 C 82 % 1009,9 hPa 0,0 l/m 21,1 km/h (4 Bft) S-SW22.5 205 0 min 3,04 klux 21 W/m
12.08.2014 06:55 13,8 C 11,9 C 18,9 C 82 % 1010,9 hPa 0,0 l/m 21,5 km/h (4 Bft) SW22.5 215 0 min 4,62 klux 32 W/m
12.08.2014 07:00 13,9 C 11,9 C 18,9 C 82 % 1009,9 hPa 0,0 l/m 24,6 km/h (4 Bft) S-SW22.5 210 0 min 7,55 klux 52 W/m
12.08.2014 07:04 13,9 C 12,1 C 18,9 C 82 % 1009,9 hPa 0,0 l/m 19,9 km/h (4 Bft) S-SW45 210 4 min 8,96 klux 61 W/m
12.08.2014 07:09 13,9 C 12,1 C 18,9 C 82 % 1009,9 hPa 0,0 l/m 20,1 km/h (4 Bft) S-SW45 210 0 min 9,6 klux 65 W/m
12.08.2014 07:14 14,0 C 12,4 C 18,9 C 82 % 1010,9 hPa 0,0 l/m 24,0 km/h (4 Bft) S-SW22.5 210 5 min 10,8 klux 74 W/m
12.08.2014 07:19 14,1 C 12,4 C 18,9 C 82 % 1010,9 hPa 0,0 l/m 19,3 km/h (3 Bft) SW45 215 5 min 12,1 klux 83 W/m
12.08.2014 07:25 14,1 C 12,5 C 18,9 C 81 % 1010,9 hPa 0,0 l/m 23,6 km/h (4 Bft) S-SW45 210 6 min 13,6 klux 93 W/m
12.08.2014 07:30 14,1 C 12,6 C 18,9 C 81 % 1010,9 hPa 0,0 l/m 23,5 km/h (4 Bft) SW45 215 5 min 14,2 klux 97 W/m
12.08.2014 07:34 14,2 C 12,8 C 18,9 C 81 % 1010,9 hPa 0,0 l/m 24,1 km/h (4 Bft) SW45 215 4 min 18,0 klux 123 W/m
12.08.2014 07:39 14,3 C 13,4 C 18,9 C 81 % 1010,9 hPa 0,0 l/m 20,3 km/h (4 Bft) SW45 225 5 min 20,3 klux 139 W/m
12.08.2014 07:44 14,4 C 13,6 C 18,9 C 81 % 1010,9 hPa 0,0 l/m 24,0 km/h (4 Bft) S-SW45 210 0 min 10,9 klux 75 W/m
12.08.2014 07:49 14,4 C 13,5 C 18,8 C 81 % 1010,9 hPa 0,0 l/m 23,3 km/h (4 Bft) SW45 215 0 min 6,95 klux 48 W/m
12.08.2014 07:54 14,4 C 13,3 C 18,7 C 81 % 1010,9 hPa 0,0 l/m 25,5 km/h (4 Bft) SW67.5 225 0 min 18,7 klux 128 W/m
12.08.2014 08:00 14,4 C 13,9 C 18,6 C 81 % 1010,9 hPa 0,0 l/m 31,5 km/h (5 Bft) SW67.5 225 6 min 23,0 klux 157 W/m
12.08.2014 08:04 14,6 C 14,5 C 18,5 C 80 % 1010,9 hPa 0,0 l/m 26,1 km/h (4 Bft) SW67.5 220 4 min 24,2 klux 166 W/m
12.08.2014 08:09 14,8 C 15,1 C 18,4 C 80 % 1010,9 hPa 0,0 l/m 31,2 km/h (5 Bft) SW45 220 5 min 23,0 klux 157 W/m
12.08.2014 08:14 15,0 C 15,7 C 18,4 C 80 % 1010,9 hPa 0,0 l/m 28,8 km/h (5 Bft) SW45 230 5 min 26,7 klux 183 W/m
12.08.2014 08:19 15,0 C 17,0 C 18,2 C 79 % 1010,9 hPa 0,0 l/m 27,2 km/h (5 Bft) SW45 220 5 min 28,1 klux 192 W/m
12.08.2014 08:24 15,2 C 17,9 C 18,2 C 78 % 1010,9 hPa 0,0 l/m 31,7 km/h (5 Bft) SW45 220 5 min 29,0 klux 198 W/m
12.08.2014 08:30 15,4 C 18,6 C 18,1 C 78 % 1010,9 hPa 0,0 l/m 31,7 km/h (5 Bft) SW45 220 6 min 30,2 klux 207 W/m
12.08.2014 08:35 15,6 C 18,9 C 18,1 C 77 % 1010,9 hPa 0,0 l/m 28,6 km/h (5 Bft) SW22.5 225 5 min 31,2 klux 213 W/m
12.08.2014 08:39 15,7 C 19,2 C 18,0 C 77 % 1010,9 hPa 0,0 l/m 32,0 km/h (5 Bft) SW67.5 230 4 min 32,3 klux 221 W/m
12.08.2014 08:44 15,9 C 19,8 C 18,0 C 76 % 1010,9 hPa 0,0 l/m 27,5 km/h (5 Bft) SW45 215 5 min 33,8 klux 231 W/m
12.08.2014 08:49 16,0 C 20,3 C 18,0 C 75 % 1010,9 hPa 0,0 l/m 26,3 km/h (4 Bft) S-SW45 210 5 min 35,8 klux 245 W/m
12.08.2014 08:54 16,1 C 21,0 C 17,9 C 74 % 1010,9 hPa 0,0 l/m 31,8 km/h (5 Bft) S-SW45 210 5 min 38,7 klux 265 W/m
12.08.2014 08:59 16,2 C 20,1 C 17,9 C 74 % 1010,9 hPa 0,0 l/m 30,1 km/h (5 Bft) SW67.5 230 5 min 38,7 klux 265 W/m
12.08.2014 09:05 16,2 C 20,6 C 17,9 C 74 % 1010,9 hPa 0,0 l/m 39,3 km/h (6 Bft) SW67.5 220 6 min 39,5 klux 270 W/m
12.08.2014 09:09 16,3 C 21,7 C 17,9 C 75 % 1010,9 hPa 0,0 l/m 29,2 km/h (5 Bft) SW67.5 230 4 min 38,2 klux 261 W/m
12.08.2014 09:14 16,3 C 20,8 C 17,8 C 73 % 1010,9 hPa 0,0 l/m 39,3 km/h (6 Bft) SW45 225 5 min 35,5 klux 243 W/m
12.08.2014 09:19 16,4 C 21,2 C 17,8 C 73 % 1010,9 hPa 0,0 l/m 37,5 km/h (5 Bft) SW45 225 5 min 44,6 klux 305 W/m
12.08.2014 09:24 16,5 C 21,9 C 17,8 C 72 % 1010,9 hPa 0,0 l/m 28,1 km/h (5 Bft) SW22.5 225 5 min 49,4 klux 338 W/m
12.08.2014 09:29 16,5 C 23,3 C 17,8 C 72 % 1010,9 hPa 0,0 l/m 33,6 km/h (5 Bft) SW67.5 230 0 min 30,5 klux 209 W/m
12.08.2014 09:35 17,0 C 23,3 C 17,8 C 71 % 1010,9 hPa 0,0 l/m 25,8 km/h (4 Bft) SW45 230 0 min 18,8 klux 129 W/m
12.08.2014 09:40 17,0 C 22,3 C 17,8 C 71 % 1010,9 hPa 0,0 l/m 25,1 km/h (4 Bft) SW22.5 230 0 min 21,1 klux 144 W/m
12.08.2014 09:44 16,8 C 20,7 C 17,8 C 69 % 1010,9 hPa 0,0 l/m 35,6 km/h (5 Bft) SW45 235 0 min 17,9 klux 122 W/m
12.08.2014 09:49 16,6 C 19,6 C 17,8 C 70 % 1010,9 hPa 0,0 l/m 29,3 km/h (5 Bft) W-SW45 245 0 min 14,6 klux 100 W/m
12.08.2014 09:54 16,9 C 21,5 C 17,8 C 70 % 1010,9 hPa 0,0 l/m 36,9 km/h (5 Bft) SW45 225 5 min 61,5 klux 421 W/m
12.08.2014 09:59 17,4 C 21,8 C 17,8 C 70 % 1010,9 hPa 0,0 l/m 30,2 km/h (5 Bft) SW45 225 5 min 61,3 klux 419 W/m
12.08.2014 10:05 17,6 C 24,9 C 17,9 C 66 % 1010,9 hPa 0,0 l/m 36,6 km/h (5 Bft) W-SW67.5 240 6 min 58,7 klux 402 W/m
12.08.2014 10:10 17,6 C 25,0 C 17,9 C 67 % 1010,9 hPa 0,0 l/m 38,1 km/h (6 Bft) SW45 230 0 min 26,9 klux 184 W/m
12.08.2014 10:14 17,6 C 24,6 C 17,9 C 66 % 1010,9 hPa 0,0 l/m 40,1 km/h (6 Bft) SW45 225 4 min 48,5 klux 332 W/m
12.08.2014 10:19 17,6 C 22,9 C 17,9 C 66 % 1010,9 hPa 0,0 l/m 37,4 km/h (5 Bft) SW45 220 0 min 16,5 klux 113 W/m
12.08.2014 10:24 17,6 C 26,7 C 18,0 C 66 % 1010,9 hPa 0,0 l/m 35,4 km/h (5 Bft) SW45 225 5 min 70,1 klux 479 W/m
12.08.2014 10:29 18,2 C 28,2 C 18,0 C 66 % 1010,8 hPa 0,0 l/m 27,7 km/h (5 Bft) SW67.5 230 5 min 66,1 klux 452 W/m
12.08.2014 10:34 18,2 C 28,9 C 18,1 C 66 % 1010,8 hPa 0,0 l/m 34,8 km/h (5 Bft) SW67.5 220 5 min 66,1 klux 452 W/m
12.08.2014 10:39 18,2 C 28,6 C 18,1 C 66 % 1010,8 hPa 0,0 l/m 34,9 km/h (5 Bft) SW45 235 5 min 72,9 klux 499 W/m
12.08.2014 10:45 18,8 C 28,7 C 18,2 C 64 % 1010,8 hPa 0,0 l/m 34,9 km/h (5 Bft) SW45 235 6 min 74,3 klux 508 W/m
12.08.2014 10:50 18,8 C 28,9 C 18,3 C 64 % 1010,8 hPa 0,0 l/m 37,9 km/h (6 Bft) SW67.5 220 5 min 68,1 klux 466 W/m
12.08.2014 10:54 18,8 C 28,5 C 18,3 C 64 % 1010,8 hPa 0,0 l/m 31,3 km/h (5 Bft) SW45 215 4 min 68,6 klux 469 W/m
12.08.2014 10:59 18,8 C 28,7 C 18,3 C 64 % 1010,8 hPa 0,0 l/m 31,7 km/h (5 Bft) SW67.5 225 5 min 68,6 klux 469 W/m
12.08.2014 11:04 18,8 C 27,2 C 18,4 C 62 % 1010,8 hPa 0,0 l/m 33,1 km/h (5 Bft) W-SW67.5 245 0 min 25,5 klux 174 W/m
12.08.2014 11:09 18,8 C 28,9 C 18,4 C 62 % 1010,8 hPa 0,0 l/m 26,1 km/h (4 Bft) SW67.5 230 5 min 75,2 klux 514 W/m
12.08.2014 11:15 18,8 C 30,7 C 18,4 C 62 % 1010,8 hPa 0,0 l/m 34,3 km/h (5 Bft) SW45 235 6 min 74,5 klux 510 W/m
12.08.2014 11:20 19,4 C 31,6 C 18,5 C 59 % 1010,8 hPa 0,0 l/m 35,0 km/h (5 Bft) SW67.5 235 0 min 51,8 klux 354 W/m
12.08.2014 11:24 19,0 C 29,0 C 18,6 C 60 % 1010,8 hPa 0,0 l/m 33,5 km/h (5 Bft) SW67.5 235 0 min 23,4 klux 160 W/m
12.08.2014 11:29 19,0 C 26,9 C 18,6 C 60 % 1010,8 hPa 0,0 l/m 35,9 km/h (5 Bft) SW22.5 230 0 min 31,2 klux 213 W/m
12.08.2014 11:34 19,0 C 25,8 C 18,6 C 60 % 1010,8 hPa 0,0 l/m 31,5 km/h (5 Bft) SW45 230 0 min 22,1 klux 151 W/m
12.08.2014 11:39 19,0 C 25,9 C 18,6 C 60 % 1010,8 hPa 0,0 l/m 27,8 km/h (5 Bft) SW45 230 5 min 56,9 klux 389 W/m
12.08.2014 11:44 19,0 C 29,6 C 18,7 C 60 % 1010,8 hPa 0,0 l/m 29,4 km/h (5 Bft) W-SW45 240 5 min 87,7 klux 600 W/m
12.08.2014 11:50 19,0 C 32,1 C 18,8 C 60 % 1010,8 hPa 0,0 l/m 33,9 km/h (5 Bft) SW22.5 220 6 min 81,5 klux 557 W/m
12.08.2014 11:55 20,1 C 32,6 C 18,8 C 58 % 1010,8 hPa 0,0 l/m 32,3 km/h (5 Bft) SW67.5 230 5 min 72,3 klux 495 W/m
12.08.2014 11:59 20,1 C 32,5 C 18,9 C 57 % 1010,8 hPa 0,0 l/m 30,4 km/h (5 Bft) SW45 220 0 min 51,3 klux 351 W/m
12.08.2014 12:04 19,8 C 27,6 C 18,9 C 58 % 1010,8 hPa 0,0 l/m 27,6 km/h (5 Bft) SW67.5 225 0 min 20,1 klux 137 W/m
12.08.2014 12:09 19,4 C 26,3 C 18,9 C 57 % 1010,8 hPa 0,0 l/m 30,5 km/h (5 Bft) S-SW45 210 0 min 24,7 klux 169 W/m
12.08.2014 12:15 19,3 C 25,2 C 19,0 C 59 % 1010,8 hPa 0,0 l/m 30,2 km/h (5 Bft) SW67.5 225 0 min 23,8 klux 163 W/m
12.08.2014 12:20 19,3 C 23,4 C 19,0 C 59 % 1010,8 hPa 0,0 l/m 38,2 km/h (6 Bft) SW45 225 0 min 23,9 klux 163 W/m
12.08.2014 12:24 19,3 C 21,4 C 19,0 C 59 % 1010,8 hPa 0,0 l/m 39,4 km/h (6 Bft) SW67.5 220 0 min 20,8 klux 142 W/m
12.08.2014 12:29 19,3 C 18,7 C 19,0 C 59 % 1010,8 hPa 0,0 l/m 34,5 km/h (5 Bft) W-SW45 240 0 min 19,1 klux 131 W/m
12.08.2014 12:34 17,0 C 17,9 C 18,9 C 70 % 1010,9 hPa 0,0 l/m 34,6 km/h (5 Bft) SW67.5 230 0 min 11,1 klux 76 W/m
12.08.2014 12:39 16,8 C 16,2 C 18,9 C 73 % 1010,9 hPa 0,7 l/m 32,5 km/h (5 Bft) W-SW22.5 245 5 min 78,2 klux 535 W/m
12.08.2014 12:44 17,2 C 19,7 C 18,8 C 75 % 1010,9 hPa 0,0 l/m 20,6 km/h (4 Bft) SW22.5 235 0 min 23,1 klux 158 W/m
12.08.2014 12:49 17,5 C 19,8 C 18,9 C 73 % 1010,9 hPa 0,0 l/m 22,0 km/h (4 Bft) W-SW45 240 0 min 25,5 klux 174 W/m
12.08.2014 12:55 17,5 C 19,8 C 18,8 C 73 % 1010,9 hPa 0,0 l/m 21,8 km/h (4 Bft) SW45 225 0 min 27,2 klux 186 W/m
12.08.2014 13:00 17,9 C 19,6 C 18,8 C 73 % 1010,9 hPa 0,0 l/m 20,3 km/h (4 Bft) SW45 230 0 min 39,0 klux 267 W/m
12.08.2014 13:04 17,9 C 19,1 C 18,9 C 70 % 1010,9 hPa 0,0 l/m 23,0 km/h (4 Bft) W-SW22.5 240 0 min 19,5 klux 133 W/m
12.08.2014 13:09 17,8 C 18,6 C 18,8 C 72 % 1010,9 hPa 0,0 l/m 34,4 km/h (5 Bft) W-SW45 245 0 min 25,7 klux 176 W/m
12.08.2014 13:14 17,6 C 18,8 C 18,8 C 73 % 1010,9 hPa 0,0 l/m 32,5 km/h (5 Bft) W22.5 260 0 min 31,9 klux 218 W/m
12.08.2014 13:19 18,5 C 25,3 C 18,8 C 73 % 1010,8 hPa 0,0 l/m 29,8 km/h (5 Bft) W22.5 260 5 min 88,1 klux 603 W/m
12.08.2014 13:25 18,4 C 24,7 C 18,8 C 70 % 1010,8 hPa 0,0 l/m 25,0 km/h (4 Bft) W-SW45 240 0 min 15,6 klux 107 W/m
12.08.2014 13:30 18,7 C 25,8 C 18,9 C 72 % 1010,8 hPa 0,0 l/m 21,1 km/h (4 Bft) W-SW67.5 245 0 min 17,2 klux 118 W/m
12.08.2014 13:34 18,8 C 25,2 C 18,9 C 67 % 1010,8 hPa 0,0 l/m 26,5 km/h (4 Bft) SW22.5 230 0 min 20,3 klux 139 W/m
12.08.2014 13:39 19,0 C 24,5 C 18,9 C 61 % 1010,8 hPa 0,0 l/m 41,1 km/h (6 Bft) S-SW67.5 210 5 min 83,5 klux 571 W/m
12.08.2014 13:44 19,4 C 29,9 C 18,9 C 63 % 1010,8 hPa 0,0 l/m 34,1 km/h (5 Bft) SW45 225 5 min 78,2 klux 535 W/m
12.08.2014 13:49 19,9 C 32,5 C 19,0 C 60 % 1010,8 hPa 0,0 l/m 36,5 km/h (5 Bft) SW22.5 220 5 min 77,8 klux 532 W/m
12.08.2014 13:54 20,2 C 34,0 C 19,0 C 60 % 1010,8 hPa 0,0 l/m 38,3 km/h (6 Bft) SW22.5 215 5 min 84,0 klux 575 W/m
12.08.2014 14:00 20,4 C 34,7 C 19,1 C 61 % 1010,8 hPa 0,0 l/m 33,9 km/h (5 Bft) SW45 225 6 min 88,2 klux 603 W/m
12.08.2014 14:04 20,5 C 33,4 C 19,1 C 59 % 1009,8 hPa 0,0 l/m 36,7 km/h (5 Bft) SW67.5 225 4 min 95,4 klux 653 W/m
12.08.2014 14:09 20,3 C 29,3 C 19,1 C 59 % 1010,8 hPa 0,0 l/m 37,8 km/h (5 Bft) SW45 220 5 min 95,4 klux 653 W/m
12.08.2014 14:14 19,6 C 29,3 C 19,2 C 59 % 1010,8 hPa 0,0 l/m 40,0 km/h (6 Bft) SW67.5 235 0 min 15,1 klux 103 W/m
12.08.2014 14:19 18,0 C 19,5 C 19,3 C 64 % 1010,9 hPa 0,0 l/m 40,0 km/h (6 Bft) SW67.5 235 0 min 15,1 klux 103 W/m
12.08.2014 14:24 17,6 C 17,8 C 19,2 C 65 % 1010,9 hPa 0,0 l/m 31,8 km/h (5 Bft) SW45 230 0 min 20,1 klux 137 W/m
12.08.2014 14:30 17,7 C 19,9 C 19,2 C 65 % 1009,9 hPa 0,0 l/m 24,6 km/h (4 Bft) SW22.5 220 0 min 20,1 klux 137 W/m
12.08.2014 14:35 18,0 C 25,5 C 19,1 C 67 % 1009,8 hPa 0,0 l/m 23,0 km/h (4 Bft) SW22.5 215 5 min 78,3 klux 536 W/m
12.08.2014 14:39 18,9 C 29,2 C 19,2 C 65 % 1009,8 hPa 0,0 l/m 31,2 km/h (5 Bft) SW22.5 235 4 min 75,0 klux 513 W/m
12.08.2014 14:44 19,5 C 33,5 C 19,2 C 65 % 1009,8 hPa 0,0 l/m 24,8 km/h (4 Bft) SW45 225 5 min 77,8 klux 532 W/m
12.08.2014 14:49 19,5 C 36,4 C 19,2 C 65 % 1009,8 hPa 0,0 l/m 30,2 km/h (5 Bft) SW45 215 5 min 83,4 klux 570 W/m
12.08.2014 14:54 20,2 C 36,5 C 19,2 C 60 % 1009,8 hPa 0,0 l/m 29,1 km/h (5 Bft) SW45 220 5 min 84,3 klux 577 W/m
12.08.2014 14:59 20,4 C 33,4 C 19,4 C 61 % 1009,8 hPa 0,0 l/m 33,1 km/h (5 Bft) SW67.5 215 5 min 84,3 klux 577 W/m
12.08.2014 15:05 20,8 C 37,2 C 19,5 C 61 % 1009,8 hPa 0,0 l/m 27,6 km/h (5 Bft) SW45 225 6 min 79,2 klux 542 W/m
12.08.2014 15:09 21,3 C 36,5 C 19,6 C 59 % 1009,8 hPa 0,0 l/m 26,8 km/h (4 Bft) W-SW45 240 4 min 71,7 klux 490 W/m
12.08.2014 15:14 21,2 C 33,3 C 19,7 C 56 % 1009,8 hPa 0,0 l/m 35,0 km/h (5 Bft) W-SW45 240 5 min 72,5 klux 496 W/m
12.08.2014 15:19 21,4 C 35,4 C 19,8 C 56 % 1009,8 hPa 0,0 l/m 34,0 km/h (5 Bft) SW67.5 235 5 min 72,7 klux 497 W/m
12.08.2014 15:24 21,7 C 36,0 C 19,9 C 54 % 1009,8 hPa 0,0 l/m 35,6 km/h (5 Bft) SW67.5 215 5 min 76,5 klux 523 W/m
12.08.2014 15:29 21,8 C 35,3 C 20,0 C 56 % 1009,8 hPa 0,0 l/m 37,5 km/h (5 Bft) SW22.5 230 5 min 74,4 klux 509 W/m
12.08.2014 15:35 22,2 C 38,0 C 20,1 C 54 % 1009,8 hPa 0,0 l/m 24,8 km/h (4 Bft) SW22.5 220 6 min 77,8 klux 532 W/m
12.08.2014 15:40 22,2 C 36,1 C 20,2 C 54 % 1009,8 hPa 0,0 l/m 32,8 km/h (5 Bft) SW67.5 225 5 min 76,4 klux 523 W/m
12.08.2014 15:44 21,8 C 33,4 C 20,3 C 55 % 1009,8 hPa 0,0 l/m 31,7 km/h (5 Bft) SW67.5 220 0 min 19,9 klux 136 W/m
12.08.2014 15:49 21,3 C 28,8 C 20,4 C 54 % 1009,8 hPa 0,0 l/m 29,8 km/h (5 Bft) SW45 225 0 min 23,2 klux 159 W/m
12.08.2014 15:54 21,1 C 27,1 C 20,4 C 56 % 1009,8 hPa 0,0 l/m 30,9 km/h (5 Bft) SW22.5 220 0 min 27,7 klux 189 W/m
12.08.2014 15:59 21,0 C 28,9 C 20,4 C 55 % 1009,8 hPa 0,0 l/m 31,8 km/h (5 Bft) S-SW45 200 5 min 70,3 klux 481 W/m
12.08.2014 16:05 21,4 C 33,9 C 20,4 C 55 % 1009,8 hPa 0,0 l/m 28,8 km/h (5 Bft) S-SW45 210 6 min 72,2 klux 494 W/m
12.08.2014 16:10 21,4 C 35,2 C 20,5 C 55 % 1008,8 hPa 0,0 l/m 25,1 km/h (4 Bft) S-SW45 210 5 min 59,7 klux 408 W/m
12.08.2014 16:14 21,2 C 33,2 C 20,5 C 53 % 1008,8 hPa 0,0 l/m 22,1 km/h (4 Bft) S22.5 190 4 min 53,5 klux 366 W/m
12.08.2014 16:19 21,4 C 34,0 C 20,5 C 53 % 1008,8 hPa 0,0 l/m 22,0 km/h (4 Bft) S45 190 5 min 75,8 klux 518 W/m
12.08.2014 16:24 21,6 C 33,7 C 20,6 C 52 % 1008,8 hPa 0,0 l/m 22,0 km/h (4 Bft) S-SW45 200 5 min 67,7 klux 463 W/m
12.08.2014 16:29 21,5 C 32,4 C 20,6 C 52 % 1008,8 hPa 0,0 l/m 19,8 km/h (3 Bft) S-SW45 210 5 min 80,2 klux 549 W/m
12.08.2014 16:34 21,7 C 34,9 C 20,6 C 53 % 1008,8 hPa 0,0 l/m 18,8 km/h (3 Bft) SW45 215 5 min 74,5 klux 510 W/m
12.08.2014 16:40 21,8 C 31,5 C 20,6 C 50 % 1008,8 hPa 0,0 l/m 17,8 km/h (3 Bft) SW45 215 0 min 16,0 klux 109 W/m
12.08.2014 16:45 21,2 C 26,7 C 20,7 C 55 % 1008,8 hPa 0,0 l/m 23,7 km/h (4 Bft) SW45 230 0 min 8,52 klux 58 W/m
12.08.2014 16:49 20,4 C 23,2 C 20,7 C 59 % 1008,8 hPa 0,0 l/m 28,7 km/h (5 Bft) W-SW45 240 0 min 5,56 klux 38 W/m
12.08.2014 16:54 16,9 C 17,6 C 20,7 C 67 % 1008,9 hPa 0,4 l/m 62,8 km/h (7 Bft) W-NW45 285 0 min 5,56 klux 38 W/m
12.08.2014 16:59 15,4 C 14,0 C 20,5 C 74 % 1009,9 hPa 1,4 l/m 45,5 km/h (6 Bft) W22.5 270 0 min 1,40 klux 10 W/m
12.08.2014 17:04 14,8 C 13,8 C 20,2 C 76 % 1009,9 hPa 0,4 l/m 38,8 km/h (6 Bft) W45 270 0 min 2,05 klux 14 W/m
12.08.2014 17:10 14,4 C 13,4 C 20,1 C 78 % 1009,9 hPa 1,1 l/m 34,9 km/h (5 Bft) W-NW45 285 0 min 2,57 klux 18 W/m
12.08.2014 17:15 14,1 C 13,4 C 20,0 C 81 % 1009,9 hPa 0,4 l/m 29,5 km/h (5 Bft) W22.5 280 0 min 4,82 klux 33 W/m
12.08.2014 17:19 14,0 C 13,7 C 20,0 C 82 % 1009,9 hPa 0,7 l/m 26,3 km/h (4 Bft) W45 275 0 min 6,39 klux 44 W/m
12.08.2014 17:24 14,3 C 13,9 C 19,9 C 82 % 1009,9 hPa 0,0 l/m 25,5 km/h (4 Bft) W22.5 280 0 min 6,16 klux 42 W/m
12.08.2014 17:29 14,3 C 13,9 C 19,8 C 82 % 1009,9 hPa 0,0 l/m 31,1 km/h (5 Bft) W22.5 280 0 min 4,95 klux 34 W/m
12.08.2014 17:34 14,3 C 13,8 C 19,8 C 82 % 1009,9 hPa 0,7 l/m 43,5 km/h (6 Bft) W22.5 275 0 min 5,13 klux 35 W/m
12.08.2014 17:39 14,4 C 13,9 C 19,5 C 83 % 1009,9 hPa 0,0 l/m 34,3 km/h (5 Bft) W-SW22.5 255 0 min 6,90 klux 47 W/m
12.08.2014 17:44 14,6 C 14,3 C 19,3 C 83 % 1009,9 hPa 0,0 l/m 27,6 km/h (5 Bft) W-SW22.5 250 0 min 9,3 klux 64 W/m
12.08.2014 17:50 14,8 C 14,5 C 19,1 C 82 % 1009,9 hPa 0,0 l/m 25,5 km/h (4 Bft) W-SW45 240 0 min 8,83 klux 60 W/m
12.08.2014 17:54 15,0 C 14,2 C 19,1 C 81 % 1009,9 hPa 0,0 l/m 30,6 km/h (5 Bft) SW45 235 0 min 4,37 klux 30 W/m
12.08.2014 17:59 14,6 C 14,1 C 18,9 C 83 % 1009,9 hPa 0,4 l/m 39,2 km/h (6 Bft) SW22.5 235 0 min 5,53 klux 38 W/m
12.08.2014 18:04 14,5 C 14,0 C 18,9 C 84 % 1009,9 hPa 0,4 l/m 32,1 km/h (5 Bft) SW67.5 230 0 min 5,23 klux 36 W/m
12.08.2014 18:09 14,5 C 14,0 C 18,7 C 84 % 1009,9 hPa 0,0 l/m 26,0 km/h (4 Bft) SW45 215 0 min 6,10 klux 42 W/m
12.08.2014 18:15 14,5 C 14,2 C 18,7 C 84 % 1009,9 hPa 0,4 l/m 26,0 km/h (4 Bft) SW45 215 0 min 5,68 klux 39 W/m
12.08.2014 18:20 14,4 C 14,0 C 18,6 C 85 % 1009,9 hPa 0,0 l/m 26,0 km/h (4 Bft) SW45 215 0 min 4,34 klux 30 W/m
12.08.2014 18:24 14,4 C 14,0 C 18,6 C 85 % 1009,9 hPa 0,4 l/m 18,3 km/h (3 Bft) SW45 215 0 min 5,51 klux 38 W/m
12.08.2014 18:29 14,5 C 14,1 C 18,6 C 85 % 1009,9 hPa 0,0 l/m 14,8 km/h (3 Bft) SW45 225 0 min 6,63 klux 45 W/m
12.08.2014 18:34 14,7 C 14,6 C 18,6 C 82 % 1008,9 hPa 0,0 l/m 13,6 km/h (3 Bft) SW45 230 0 min 12,5 klux 86 W/m
12.08.2014 18:39 14,7 C 15,4 C 18,5 C 82 % 1008,9 hPa 0,4 l/m 12,6 km/h (3 Bft) SW45 220 0 min 12,8 klux 88 W/m
12.08.2014 18:44 15,0 C 16,0 C 18,5 C 83 % 1008,9 hPa 0,0 l/m 12,6 km/h (3 Bft) SW45 220 0 min 17,2 klux 118 W/m
12.08.2014 18:49 15,2 C 16,2 C 18,5 C 82 % 1008,9 hPa 0,0 l/m 17,7 km/h (3 Bft) SW67.5 215 0 min 24,3 klux 166 W/m
12.08.2014 18:55 15,4 C 16,2 C 18,5 C 82 % 1008,9 hPa 0,0 l/m 15,0 km/h (3 Bft) SW45 225 0 min 14,4 klux 98 W/m
12.08.2014 19:00 15,4 C 15,8 C 18,5 C 81 % 1008,9 hPa 0,0 l/m 11,8 km/h (2 Bft) S-SW22.5 205 0 min 9,8 klux 67 W/m
12.08.2014 19:04 15,3 C 15,4 C 18,5 C 81 % 1008,9 hPa 0,0 l/m 10,5 km/h (2 Bft) S-SW22.5 195 0 min 9,8 klux 67 W/m
12.08.2014 19:09 15,2 C 15,6 C 18,5 C 81 % 1008,9 hPa 0,0 l/m 10,5 km/h (2 Bft) S-SW22.5 195 0 min 12,3 klux 84 W/m
12.08.2014 19:14 15,3 C 16,0 C 18,5 C 81 % 1008,9 hPa 0,0 l/m 9,4 km/h (2 Bft) S-SW22.5 195 0 min 12,3 klux 84 W/m
12.08.2014 19:19 15,3 C 15,8 C 18,5 C 81 % 1008,9 hPa 0,0 l/m 11,0 km/h (2 Bft) S 190 0 min 8,72 klux 60 W/m
12.08.2014 19:25 15,3 C 15,3 C 18,5 C 81 % 1008,9 hPa 0,0 l/m 10,3 km/h (2 Bft) S-SW22.5 195 0 min 7,16 klux 49 W/m
12.08.2014 19:29 15,3 C 15,1 C 18,4 C 82 % 1008,9 hPa 0,0 l/m 10,5 km/h (2 Bft) S22.5 180 0 min 6,69 klux 46 W/m
12.08.2014 19:34 15,2 C 15,1 C 18,4 C 82 % 1008,9 hPa 0,0 l/m 7,4 km/h (2 Bft) S22.5 180 0 min 5,37 klux 37 W/m
12.08.2014 19:39 15,2 C 15,1 C 18,5 C 82 % 1008,9 hPa 0,0 l/m 10,7 km/h (2 Bft) S-SW22.5 200 0 min 5,19 klux 35 W/m
12.08.2014 19:44 15,3 C 15,1 C 18,5 C 82 % 1008,9 hPa 0,0 l/m 8,7 km/h (2 Bft) S-SW22.5 195 0 min 4,81 klux 33 W/m
12.08.2014 19:49 15,3 C 15,0 C 18,5 C 82 % 1008,9 hPa 0,0 l/m 7,6 km/h (2 Bft) S22.5 180 0 min 4,81 klux 33 W/m
12.08.2014 19:54 15,3 C 15,0 C 18,5 C 83 % 1008,9 hPa 0,0 l/m 7,6 km/h (2 Bft) S22.5 175 0 min 4,19 klux 29 W/m
12.08.2014 20:00 15,2 C 15,1 C 18,5 C 83 % 1008,9 hPa 0,0 l/m 18,0 km/h (3 Bft) S-SW45 200 0 min 3,21 klux 22 W/m
12.08.2014 20:04 15,2 C 14,9 C 18,4 C 82 % 1008,9 hPa 0,0 l/m 17,0 km/h (3 Bft) S22.5 185 0 min 1,57 klux 11 W/m
12.08.2014 20:09 15,1 C 14,8 C 18,4 C 82 % 1008,9 hPa 0,0 l/m 17,9 km/h (3 Bft) S-SW22.5 195 0 min 6,88 klux 47 W/m
12.08.2014 20:14 15,2 C 15,1 C 18,3 C 82 % 1008,9 hPa 0,0 l/m 19,8 km/h (3 Bft) S22.5 185 5 min 9,7 klux 66 W/m
12.08.2014 20:19 15,5 C 15,6 C 18,3 C 82 % 1008,9 hPa 0,0 l/m 17,0 km/h (3 Bft) S-SW22.5 195 5 min 9,3 klux 64 W/m
12.08.2014 20:25 15,7 C 15,4 C 18,3 C 82 % 1008,9 hPa 0,0 l/m 11,7 km/h (2 Bft) S-SW22.5 200 6 min 7,74 klux 53 W/m
12.08.2014 20:30 15,8 C 15,3 C 18,3 C 82 % 1008,9 hPa 0,0 l/m 14,3 km/h (3 Bft) S-SW22.5 195 5 min 7,10 klux 49 W/m
12.08.2014 20:34 15,8 C 15,0 C 18,3 C 82 % 1008,9 hPa 0,0 l/m 15,0 km/h (3 Bft) S-SW22.5 200 4 min 5,77 klux 39 W/m
12.08.2014 20:39 15,6 C 14,3 C 18,3 C 80 % 1008,9 hPa 0,0 l/m 16,0 km/h (3 Bft) S45 190 5 min 3,58 klux 24 W/m
12.08.2014 20:44 15,4 C 14,1 C 18,2 C 81 % 1008,9 hPa 0,0 l/m 12,8 km/h (3 Bft) S22.5 185 5 min 3,09 klux 21 W/m
12.08.2014 20:49 15,3 C 13,5 C 18,3 C 81 % 1008,9 hPa 0,0 l/m 12,9 km/h (3 Bft) S45 190 5 min 1,44 klux 10 W/m
12.08.2014 20:54 15,1 C 13,0 C 18,2 C 81 % 1008,9 hPa 0,0 l/m 17,3 km/h (3 Bft) SW45 215 0 min 911 lux 6 W/m
12.08.2014 21:00 15,1 C 12,9 C 18,2 C 81 % 1008,9 hPa 0,0 l/m 20,6 km/h (4 Bft) SW22.5 215 0 min 560 lux 0 W/m
12.08.2014 21:04 15,0 C 12,6 C 18,2 C 81 % 1008,9 hPa 0,0 l/m 22,6 km/h (4 Bft) SW22.5 220 0 min 344 lux 0 W/m
12.08.2014 21:09 15,0 C 12,3 C 18,2 C 80 % 1008,9 hPa 0,0 l/m 16,5 km/h (3 Bft) S-SW22.5 210 0 min 213 lux 0 W/m
12.08.2014 21:14 14,8 C 12,2 C 18,2 C 80 % 1008,9 hPa 0,0 l/m 15,3 km/h (3 Bft) S-SW45 200 0 min 165 lux 0 W/m
12.08.2014 21:19 14,7 C 12,0 C 18,1 C 80 % 1008,9 hPa 0,0 l/m 16,5 km/h (3 Bft) S-SW45 195 0 min 67 lux 0 W/m
12.08.2014 21:24 14,7 C 11,8 C 18,1 C 80 % 1008,9 hPa 0,0 l/m 14,4 km/h (3 Bft) S22.5 190 0 min 46 lux 0 W/m
12.08.2014 21:30 14,6 C 11,6 C 18,0 C 81 % 1008,9 hPa 0,0 l/m 9,8 km/h (2 Bft) S22.5 190 0 min 20 lux 0 W/m
12.08.2014 21:34 14,5 C 11,7 C 18,0 C 81 % 1008,9 hPa 0,0 l/m 15,9 km/h (3 Bft) S22.5 185 0 min 8 lux 0 W/m
12.08.2014 21:39 14,4 C 11,7 C 18,0 C 82 % 1008,9 hPa 0,0 l/m 16,1 km/h (3 Bft) S45 180 0 min 2 lux 0 W/m
12.08.2014 21:44 14,4 C 11,7 C 17,9 C 82 % 1008,9 hPa 0,0 l/m 17,1 km/h (3 Bft) S22.5 185 0 min 0 lux 0 W/m
12.08.2014 21:49 14,4 C 11,7 C 17,9 C 82 % 1008,9 hPa 0,0 l/m 17,9 km/h (3 Bft) S45 185 0 min 0 lux 0 W/m
12.08.2014 21:54 14,4 C 11,8 C 17,8 C 83 % 1008,9 hPa 0,0 l/m 16,1 km/h (3 Bft) S45 190 0 min 0 lux 0 W/m
12.08.2014 21:59 14,4 C 11,8 C 17,8 C 83 % 1008,9 hPa 0,0 l/m 13,4 km/h (3 Bft) S45 180 0 min 0 lux 0 W/m
12.08.2014 22:04 14,3 C 11,7 C 17,8 C 83 % 1008,9 hPa 0,0 l/m 13,5 km/h (3 Bft) S22.5 180 0 min 0 lux 0 W/m
12.08.2014 22:09 14,3 C 11,6 C 17,8 C 83 % 1008,9 hPa 0,0 l/m 14,6 km/h (3 Bft) S22.5 185 0 min 0 lux 0 W/m
12.08.2014 22:14 14,3 C 11,6 C 17,8 C 83 % 1008,9 hPa 0,0 l/m 13,7 km/h (3 Bft) S45 185 0 min 0 lux 0 W/m
12.08.2014 22:19 14,2 C 11,4 C 17,7 C 83 % 1008,9 hPa 0,0 l/m 16,4 km/h (3 Bft) S22.5 185 0 min 0 lux 0 W/m
12.08.2014 22:24 14,2 C 11,4 C 17,7 C 83 % 1008,9 hPa 0,0 l/m 15,1 km/h (3 Bft) S22.5 180 0 min 0 lux 0 W/m
12.08.2014 22:30 14,2 C 11,4 C 17,7 C 83 % 1008,9 hPa 0,0 l/m 13,8 km/h (3 Bft) S45 185 0 min 0 lux 0 W/m
12.08.2014 22:35 14,1 C 11,3 C 17,6 C 83 % 1008,9 hPa 0,0 l/m 14,4 km/h (3 Bft) S45 180 0 min 0 lux 0 W/m
12.08.2014 22:39 14,1 C 11,4 C 17,6 C 83 % 1008,9 hPa 0,0 l/m 12,1 km/h (2 Bft) S22.5 190 0 min 0 lux 0 W/m
12.08.2014 22:44 14,1 C 11,4 C 17,6 C 83 % 1008,9 hPa 0,0 l/m 14,8 km/h (3 Bft) S22.5 185 0 min 0 lux 0 W/m
12.08.2014 22:49 14,1 C 11,6 C 17,6 C 83 % 1008,9 hPa 0,0 l/m 14,2 km/h (3 Bft) S45 185 0 min 0 lux 0 W/m
12.08.2014 22:54 14,1 C 11,6 C 17,6 C 83 % 1008,9 hPa 0,0 l/m 17,1 km/h (3 Bft) S22.5 185 0 min 0 lux 0 W/m
12.08.2014 22:59 14,1 C 11,6 C 17,6 C 83 % 1008,9 hPa 0,0 l/m 15,6 km/h (3 Bft) S22.5 185 0 min 0 lux 0 W/m
12.08.2014 23:05 14,1 C 11,6 C 17,5 C 83 % 1008,9 hPa 0,0 l/m 16,3 km/h (3 Bft) S22.5 180 0 min 0 lux 0 W/m
12.08.2014 23:09 14,1 C 11,6 C 17,5 C 83 % 1008,9 hPa 0,0 l/m 11,1 km/h (2 Bft) S22.5 180 0 min 0 lux 0 W/m
12.08.2014 23:14 14,0 C 11,5 C 17,5 C 82 % 1008,9 hPa 0,0 l/m 12,2 km/h (2 Bft) S22.5 185 0 min 0 lux 0 W/m
12.08.2014 23:19 14,0 C 11,4 C 17,5 C 82 % 1008,9 hPa 0,0 l/m 12,4 km/h (2 Bft) S45 180 0 min 0 lux 0 W/m
12.08.2014 23:24 14,0 C 11,4 C 17,5 C 82 % 1008,9 hPa 0,0 l/m 12,6 km/h (3 Bft) S45 180 0 min 0 lux 0 W/m
12.08.2014 23:29 14,0 C 11,4 C 17,5 C 82 % 1008,9 hPa 0,0 l/m 13,1 km/h (3 Bft) S22.5 180 0 min 0 lux 0 W/m
12.08.2014 23:35 14,0 C 11,5 C 17,4 C 82 % 1008,9 hPa 0,0 l/m 11,9 km/h (2 Bft) S22.5 185 0 min 0 lux 0 W/m
12.08.2014 23:39 14,0 C 11,6 C 17,4 C 82 % 1008,9 hPa 0,0 l/m 8,5 km/h (2 Bft) S45 185 0 min 0 lux 0 W/m
12.08.2014 23:44 14,1 C 11,8 C 17,4 C 83 % 1008,9 hPa 0,0 l/m 8,2 km/h (2 Bft) S22.5 175 0 min 0 lux 0 W/m
12.08.2014 23:49 14,1 C 11,9 C 17,4 C 83 % 1008,9 hPa 0,0 l/m 14,0 km/h (3 Bft) S45 190 0 min 0 lux 0 W/m
12.08.2014 23:54 14,1 C 12,0 C 17,5 C 83 % 1008,9 hPa 0,0 l/m 10,3 km/h (2 Bft) S22.5 180 0 min 0 lux 0 W/m
12.08.2014 23:59 14,1 C 12,1 C 17,4 C 83 % 1008,9 hPa 0,0 l/m 12,0 km/h (2 Bft) S45 185 0 min 0 lux 0 W/m
_ Min-Zeit 06:29 22:35 23:35 16:40 16:40 - 19:34 - - - - -
Minimum _ 13,8 C 11,3 C 17,4 C 50 % 1008,8 hPa - 7,4 km/h (2 Bft) - - - - -
_ Max-Zeit 15:35 15:35 16:45 18:20 06:55 16:59 16:54 - - 07:25 14:04 14:04
Maximum _ 22,2 C 38,0 C 20,7 C 85 % 1010,9 hPa 1,4 l/m 62,8 km/h
W-NW (7 Bft)
- - 6 min 95,4 klux 653 W/m
Durchschnitt _ 16,2 C 17,9 C 18,9 C 75 % 1010,1 hPa #7,6 l/m 23,9 km/h (4 Bft) SW - #6:51 h 19,8 klux 223 W/m